COSMOS 1365

Satellite information

Favourite Embed

Satellite Type and Status

PAYLOADIN ORBIT

Key statistics

Satellite COSMOS 1365 at a glance.

Uptime

15760

Days in orbit

Revolutions

≈ 13.9

Per day

Orbit

LEO

Low Earth Orbit

Inclination

65.1

Latest

Satellite identification and parameters

Extended collection of information and parameters for COSMOS 1365.

Object identification

Identified? True

Debris? False

Object name: COSMOS 1365

International designator: 1982-043A

Object number (NORAD): 13175

Object ID (CCSDS): 13175

Country: COMMONWEALTH OF INDEPENDENT STATES (CIS)

Current information (Y/N): Y

RCS size: LARGE

Orbital parameters

Period: 103.615 minutes

Inclination: 65.0695 deg

SMA: 7307.621 km

Apoapsis: 969.677 km

Periapsis: 889.296 km

RAAN: 26.5213 deg

Eccentricy: 0.0054998

Argument of periapsis: 181.9292 deg

Mean anomaly: 240.2147 deg

Mean motion: 13.89756449 rev/day

Mean motion (dot): -0.00000065 rev/day2

B* drag term: 0.000019439 1/REarth

Two-line elements (TLE)

Creation date: July 6, 2025, 6:05 p.m.

Reference frame: TEME

Reference center: EARTH

Epoch: July 6, 2025, 3:37 p.m. UTC

TLE line 0: 0 COSMOS 1365

TLE line 1: 1 13175U 82043A 25187.65071177 -.00000065 00000-0 19439-4 0 9993

TLE line 2: 2 13175 65.0695 26.5213 0054998 181.9292 240.2147 13.89756449191946

Live tracking on map

Real-time ground track for satellite COSMOS 1365.

In-orbit conjunctions

A list of the most updated potential collisions computed for object COSMOS 1365.

Target Orbit TCA Probability of collision Miss distance Type
COSMOS 1275 DEB LEO 2025-02-12 01:04:11 0.0001432387 882.0 (m) DEBRIS
METEOR 2-17 DEB LEO 2025-01-16 01:23:57 0.0001056524 918.0 (m) DEBRIS
FENGYUN 1C DEB SSO 2024-10-12 19:53:18 0.0001279835 252.0 (m) DEBRIS
FENGYUN 1C DEB SSO 2024-10-12 18:09:37 0.0008328132 155.0 (m) DEBRIS
FENGYUN 1C DEB SSO 2024-10-12 16:25:56 0.0002718361 340.0 (m) DEBRIS

Associated space launch

Active radar satellite for ocean surveillance powered by a nuclear reactor.

COSMOS 1365 was lifted into orbit during the mission ‘Tsiklon-2 | US-A 20’, on board a Tsiklon-2 space rocket.

The launch took place on May 14, 1982, 7:39 p.m. from 90.

For more information about the launch, click the button.

Launch to space Tsiklon-2 | US-A 20
Tsiklon-2 | US-A 20

Agency: N/A

Status: Launch Successful

Launch date: May 14, 1982, 7:39 p.m. UTC

Rocket: Tsiklon-2

Launch pad: 90

Location: Baikonur Cosmodrome, Republic of Kazakhstan

...

Latest news about this satellite

There are no fresh news available about this satellite. Check back as we update our databases every day.


Newsletter sign-up

Weekly statistics, charts and insights to help you stay on top of the space industry.